Location: St. Louis
(38.6270°N, 90.1994°W)
Time: 07:01:05
(UTC-06:00)

Altair - Pass Details

Date: 30 November 2021
Orbit: 1501 x 1683 km, 47.2° (Epoch: 17 January)

Event Time Altitude Azimuth Distance (km) Brightness Sun altitude
Rises 23:06:06 0° 300° (WNW) 4,642 - -70.8°
Reaches altitude 10° 23:09:11 10° 296° (WNW) 3,654 - -71.1°
Maximum altitude 23:18:02 56° 222° (SW) 1,749 - -71.9°
Drops below altitude 10° 23:26:59 10° 147° (SSE) 3,693 - -72.5°
Sets 23:30:08 0° 143° (SE) 4,694 - -72.7°
